Albany, NY

7:18 AM EST on November 13, 2019 (GMT -0500)
Albany International

Weather History for KALB - September, 2019

Change the Weather History Date:

Tuesday, September 10, 2019

  Actual Average Record
Temperature  
Mean Temperature 65 °F 64 °F  
Max Temperature 77 °F 75 °F 96 °F (1931)
Min Temperature 52 °F 54 °F 34 °F (1978)
Degree Days  
Heating Degree Days 0 3  
Month to date heating degree days 16 21  
Since 1 July heating degree days 18 44  
Cooling Degree Days 0 2  
Month to date cooling degree days 11 29  
Year to date cooling degree days 734 572  
Growing Degree Days 14 (Base 50)    
Moisture  
Dew Point 57 °F    
Average Humidity 73    
Maximum Humidity 83    
Minimum Humidity 63    
Precipitation  
Precipitation 0.00 in 0.10 in 3.23 in (1890)
Month to date precipitation 1.77 1.01  
Year to date precipitation 30.75 27.16  
Sea Level Pressure  
Sea Level Pressure 30.28 in    
Wind  
Wind Speed 8 mph (South)    
Max Wind Speed 18 mph    
Max Gust Speed 24 mph    
Visibility 10 miles    
Events Fog    
T = Trace of Precipitation, MM = Missing Value Source: NWS Daily Summary

Daily Weather History Graph

Daily Weather History Graph

Search for Another Location

Airport or City:

Astronomy

Sep. 10, 2019 Rise Set
Actual Time 6:29 AM EDT 7:14 PM EDT
Civil Twilight 6:00 AM EDT 7:42 PM EDT
Nautical Twilight 5:26 AM EDT 8:16 PM EDT
Astronomical Twilight 4:51 AM EDT 8:51 PM EDT
Moon 5:54 PM EDT (9/10) 2:46 AM EDT (9/10)
Length of Visible Light 13h 42m
Length of Day
12h 45m
Waxing Gibbous, 89% of the Moon is Illuminated
Sep 10
Waxing Gibbous
Sep 14
Full
Sep 21
Last Quarter
Sep 28
New
Oct 5
First Quarter

Hourly Weather History & Observations

Time (EDT) Temp. Dew Point Humidity Pressure Visibility Wind Dir Wind Speed Gust Speed Precip Events Conditions
12:51 AM 57.0 °F 52.0 °F 83% 30.32 in 10.0 mi North 4.6 mph - N/A   Scattered Clouds
1:51 AM 57.0 °F 50.0 °F 77% 30.33 in 10.0 mi North 3.5 mph - N/A   Mostly Cloudy
3:51 AM 55.0 °F 48.9 °F 80% 30.34 in 10.0 mi NNW 3.5 mph - N/A   Mostly Cloudy
4:51 AM 54.0 °F 48.0 °F 80% 30.33 in 10.0 mi Calm Calm - N/A   Partly Cloudy
5:51 AM 53.1 °F 48.0 °F 83% 30.35 in 10.0 mi NW 3.5 mph - N/A Fog Partly Cloudy
6:51 AM 53.1 °F 48.9 °F 86% 30.37 in 10.0 mi Calm Calm - N/A Fog Scattered Clouds
7:51 AM 57.0 °F 51.1 °F 81% 30.37 in 10.0 mi Variable 3.5 mph - N/A   Scattered Clouds
8:51 AM 60.1 °F 51.1 °F 72% 30.37 in 10.0 mi Calm Calm - N/A   Scattered Clouds
9:51 AM 63.0 °F 53.1 °F 70% 30.37 in 10.0 mi Calm Calm - N/A   Scattered Clouds
10:51 AM 68.0 °F 55.9 °F 65% 30.36 in 10.0 mi Variable 4.6 mph - N/A   Scattered Clouds
11:51 AM 70.0 °F 57.9 °F 65% 30.33 in 10.0 mi South 10.4 mph - N/A   Scattered Clouds
12:51 PM 73.0 °F 61.0 °F 66% 30.30 in 10.0 mi South 13.8 mph 20.7 mph N/A   Scattered Clouds
1:51 PM 73.9 °F 62.1 °F 66% 30.29 in 10.0 mi South 13.8 mph 24.2 mph N/A   Mostly Cloudy
2:51 PM 73.0 °F 62.1 °F 68% 30.27 in 10.0 mi South 15.0 mph 21.9 mph N/A   Mostly Cloudy
3:51 PM 75.0 °F 62.1 °F 64% 30.24 in 10.0 mi SSE 15.0 mph 20.7 mph N/A   Mostly Cloudy
4:51 PM 75.9 °F 62.1 °F 62% 30.23 in 10.0 mi South 12.7 mph - N/A   Mostly Cloudy
5:51 PM 75.0 °F 62.1 °F 64% 30.22 in 10.0 mi South 12.7 mph - N/A   Mostly Cloudy
6:51 PM 73.9 °F 63.0 °F 68% 30.21 in 10.0 mi South 13.8 mph 20.7 mph N/A   Mostly Cloudy
7:51 PM 73.0 °F 63.0 °F 71% 30.20 in 10.0 mi South 11.5 mph - N/A   Mostly Cloudy
8:51 PM 73.0 °F 63.0 °F 71% 30.20 in 10.0 mi South 11.5 mph - N/A   Mostly Cloudy
9:51 PM 72.0 °F 62.1 °F 71% 30.18 in 10.0 mi South 11.5 mph - N/A   Overcast
10:51 PM 72.0 °F 63.0 °F 73% 30.17 in 10.0 mi South 13.8 mph 21.9 mph N/A   Overcast
11:51 PM 71.1 °F 62.1 °F 73% 30.15 in 10.0 mi South 12.7 mph - N/A   Overcast